This is the latest recevied weather packets stored in our database for station/object NC4M. If no packets are shown the sender has not sent any weather packets the latest 10 day(s).
| Time | Temp. | Humidity | Pressure | Rain* | Wind** | Luminosity | Snow |
|---|---|---|---|---|---|---|---|
| 1777568341 | 17.22° C | 33% | 1019.2 hPa | 0 mm | - | 802 W/m² | - |
| 1777568037 | 18.33° C | 28% | 1019.3 hPa | 0 mm | - | 765 W/m² | - |
| 1777567734 | 17.78° C | 37% | 1019.4 hPa | 0 mm | - | 858 W/m² | - |
| 1777567431 | 17.78° C | 30% | 1019.4 hPa | 0 mm | - | 649 W/m² | - |
| 1777567129 | 17.22° C | 31% | 1019.3 hPa | 0 mm | - | 815 W/m² | - |
| 1777566826 | 17.78° C | 32% | 1019.3 hPa | 0 mm | - | 838 W/m² | - |
| 1777566524 | 18.33° C | 33% | 1019.4 hPa | 0 mm | - | 811 W/m² | - |
| 1777566222 | 18.33° C | 34% | 1019.5 hPa | 0 mm | - | 829 W/m² | - |
| 1777565918 | 17.78° C | 41% | 1019.6 hPa | 0 mm | - | 816 W/m² | - |
| 1777565613 | 17.78° C | 29% | 1019.6 hPa | 0 mm | - | 801 W/m² | - |
| 1777565311 | 16.67° C | 36% | 1019.7 hPa | 0 mm | - | 795 W/m² | - |
| 1777565006 | 17.22° C | 34% | 1019.8 hPa | 0 mm | - | 785 W/m² | - |
| 1777564702 | 16.67° C | 32% | 1019.8 hPa | 0 mm | - | 770 W/m² | - |
| 1777564397 | 15.56° C | 36% | 1019.9 hPa | 0 mm | - | 754 W/m² | - |
| 1777564094 | 16.11° C | 37% | 1019.7 hPa | 0 mm | - | 749 W/m² | - |
| 1777563790 | 16.67° C | 36% | 1019.5 hPa | 0 mm | - | 112 W/m² | - |
| 1777563486 | 16.11° C | 36% | 1019.7 hPa | 0 mm | - | 213 W/m² | - |
| 1777563185 | 15.56° C | 43% | 1019.6 hPa | 0 mm | - | 658 W/m² | - |
| 1777562882 | 15° C | 36% | 1019.6 hPa | 0 mm | - | 530 W/m² | - |
| 1777562579 | 15° C | 36% | 1019.4 hPa | 0 mm | - | 157 W/m² | - |
| 1777562277 | 15° C | 41% | 1019.5 hPa | 0 mm | - | 71 W/m² | - |
| 1777561974 | 14.44° C | 37% | 1019.4 hPa | 0 mm | - | 106 W/m² | - |
| 1777561671 | 14.44° C | 41% | 1019.4 hPa | 0 mm | - | 237 W/m² | - |
| 1777561366 | 15° C | 37% | 1019.5 hPa | 0 mm | - | 310 W/m² | - |
| 1777561062 | 15° C | 48% | 1019.4 hPa | 0 mm | - | 64 W/m² | - |
* Rain latest hour (hover to see other rain measurements)
** Current wind speed in m/s (hover to see current wind gust speed)